Nice, France

6:05 AM CEST on June 27, 2017 (GMT +0200)
Nice-Cote d'Azur

Weather History for LFMN - February, 2013

Change the Weather History Date:

Saturday, February 9, 2013

  Actual Average Record
Temperature  
Mean Temperature 42 °F -  
Max Temperature 50 °F 56 °F 69 °F (2000)
Min Temperature 33 °F 41 °F 33 °F (2013)
Degree Days  
Heating Degree Days 24    
Moisture  
Dew Point 18 °F    
Average Humidity 40    
Maximum Humidity 61    
Minimum Humidity 12    
Precipitation  
Precipitation 0.01 in 0.10 in - ()
Sea Level Pressure  
Sea Level Pressure 29.89 in    
Wind  
Wind Speed 9 mph ()    
Max Wind Speed 16 mph    
Max Gust Speed -    
Visibility 7.3 miles    
Events      
Averages and records for this station are not official NWS values.
T = Trace of Precipitation, MM = Missing Value Source: Averaged Metar Reports

Daily Weather History Graph

Daily Weather History Graph

Search for Another Location

Airport or City:

Trip Planner

Search our weather history database for the weather conditions in past years. The results will help you decide how hot, cold, wet, or windy it might be!

Date:

Astronomy

Feb. 09, 2013 Rise Set
Actual Time 7:38 AM CET 5:53 PM CET
Civil Twilight 7:08 AM CET 6:23 PM CET
Nautical Twilight 6:34 AM CET 6:57 PM CET
Astronomical Twilight 6:01 AM CET 7:30 PM CET
Moon 6:38 AM CET (2/9) 5:18 PM CET (2/9)
Length of Visible Light 11h 15m
Length of Day
10h 15m
Waning Crescent, 1% of the Moon is Illuminated
Feb 9
Waning Crescent
Feb 10
New
Feb 17
First Quarter
Feb 25
Full
Mar 4
Last Quarter

Hourly Weather History & Observations

Time (CET) Temp. Windchill Dew Point Humidity Pressure Visibility Wind Dir Wind Speed Gust Speed Precip Events Conditions
12:00 AM 39.2 °F 31.6 °F 19.4 °F 45% 29.86 in - NNW 12.7 mph - N/A   Clear
12:30 AM 37.4 °F 28.5 °F 19.4 °F 48% 29.86 in - NNW 15.0 mph - N/A   Clear
1:00 AM 38 °F - 19 °F 32% 29.89 in 19 mi NNW 11.5 mph - -  
1:00 AM 37.4 °F 29.3 °F 19.4 °F 48% 29.89 in - NNW 12.7 mph - N/A   Clear
1:30 AM 37.4 °F 30.8 °F 17.6 °F 45% 29.89 in - NNW 9.2 mph - N/A   Clear
2:00 AM 37.4 °F 32.1 °F 17.6 °F 45% 29.89 in - North 6.9 mph - N/A   Clear
2:30 AM 37.4 °F 32.1 °F 17.6 °F 45% 29.89 in - North 6.9 mph - N/A   Clear
3:00 AM 37.4 °F 30.8 °F 14.0 °F 38% 29.89 in - North 9.2 mph - N/A   Clear
3:30 AM 37.4 °F 31.4 °F 14.0 °F 38% 29.86 in - North 8.1 mph - N/A   Clear
4:00 AM 35.6 °F 27.5 °F 14.0 °F 41% 29.86 in - NNW 11.5 mph - N/A   Clear
4:30 AM 35.6 °F 29.2 °F 14.0 °F 41% 29.86 in - North 8.1 mph - N/A   Clear
5:00 AM 35.6 °F 30.7 °F 12.2 °F 38% 29.86 in - North 5.8 mph - N/A   Clear
5:30 AM 35.6 °F 29.9 °F 10.4 °F 35% 29.86 in - North 6.9 mph - N/A   Clear
6:00 AM 35.6 °F 29.2 °F 10.4 °F 35% 29.86 in - NNW 8.1 mph - N/A   Clear
6:30 AM 35.6 °F 27.5 °F 10.4 °F 35% 29.86 in - NNW 11.5 mph - N/A   Clear
7:00 AM 35 °F - 10 °F 22% 29.89 in 19 mi NNW 10.4 mph - -   Scattered Clouds
7:00 AM 33.8 °F 25.8 °F 10.4 °F 38% 29.86 in - NNW 10.4 mph - N/A   Clear
7:30 AM 33.8 °F 25.3 °F 10.4 °F 38% 29.86 in 6.2 mi NNW 11.5 mph - N/A   Partly Cloudy
8:00 AM 35.6 °F 27.5 °F 8.6 °F 33% 29.86 in 6.2 mi NNW 11.5 mph - N/A   Scattered Clouds
9:00 AM 37.4 °F 30.8 °F 8.6 °F 30% 29.89 in 6.2 mi NNW 9.2 mph - N/A   Mostly Cloudy
9:30 AM 39.2 °F 33.0 °F 6.8 °F 26% 29.89 in 6.2 mi NNW 9.2 mph - N/A   Mostly Cloudy
10:00 AM 41.0 °F 35.2 °F 8.6 °F 26% 29.89 in 6.2 mi North 9.2 mph - N/A   Mostly Cloudy
10:30 AM 42.8 °F 37.5 °F 6.8 °F 23% 29.89 in 6.2 mi NNW 9.2 mph - N/A   Mostly Cloudy
11:00 AM 44.6 °F 39.7 °F 6.8 °F 21% 29.89 in 6.2 mi NNW 9.2 mph - N/A   Scattered Clouds
11:30 AM 46.4 °F 42.4 °F 8.6 °F 22% 29.89 in 6.2 mi NNW 8.1 mph - N/A   Scattered Clouds
12:00 PM 50.0 °F - 15.8 °F 26% 29.89 in 6.2 mi Variable 3.5 mph - N/A   Scattered Clouds
12:30 PM 50.0 °F - 15.8 °F 26% 29.89 in 6.2 mi East 6.9 mph - N/A   Scattered Clouds
1:00 PM 50 °F - 14 °F 12% 29.90 in 31 mi SSE 5.8 mph - -   Scattered Clouds
1:00 PM 50.0 °F - 15.8 °F 26% 29.89 in 6.2 mi SE 5.8 mph - N/A   Partly Cloudy
1:30 PM 50.0 °F - 15.8 °F 26% 29.89 in 6.2 mi ESE 5.8 mph - N/A   Partly Cloudy
2:00 PM 50.0 °F - 21.2 °F 32% 29.89 in 6.2 mi SSE 6.9 mph - N/A   Partly Cloudy
2:30 PM 48.2 °F - 32.0 °F 54% 29.89 in 6.2 mi South 15.0 mph - N/A   Partly Cloudy
3:00 PM 48.2 °F - 30.2 °F 50% 29.89 in 6.2 mi South 12.7 mph - N/A   Scattered Clouds
3:30 PM 48.2 °F - 30.2 °F 50% 29.89 in 6.2 mi SSW 10.4 mph - N/A   Scattered Clouds
4:00 PM 50.0 °F - 28.4 °F 43% 29.89 in 6.2 mi South 8.1 mph - N/A   Scattered Clouds
4:30 PM 48.2 °F - 24.8 °F 40% 29.89 in 6.2 mi South 6.9 mph - N/A   Scattered Clouds
5:00 PM 46.4 °F 39.8 °F 26.6 °F 46% 29.89 in 6.2 mi ENE 16.1 mph - N/A   Scattered Clouds
5:30 PM 44.6 °F 38.1 °F 26.6 °F 49% 29.89 in 6.2 mi ENE 13.8 mph - N/A   Scattered Clouds
6:00 PM 44.6 °F 39.7 °F 24.8 °F 46% 29.89 in 6.2 mi NE 9.2 mph - N/A   Scattered Clouds
6:30 PM 41.0 °F 35.8 °F 24.8 °F 53% 29.92 in 6.2 mi NNE 8.1 mph - N/A   Scattered Clouds
7:00 PM 43 °F - 24 °F 34% 29.92 in 19 mi North 4.6 mph - -   Scattered Clouds
7:00 PM 42.8 °F 39.3 °F 23.0 °F 46% 29.92 in 6.2 mi North 5.8 mph - N/A   Scattered Clouds
7:30 PM 42.8 °F 40.1 °F 24.8 °F 49% 29.92 in 6.2 mi NNW 4.6 mph - N/A   Scattered Clouds
8:00 PM 41.0 °F 38.0 °F 24.8 °F 53% 29.92 in 6.2 mi North 4.6 mph - N/A   Scattered Clouds
8:30 PM 39.2 °F 34.2 °F 26.6 °F 61% 29.92 in 6.2 mi NNW 6.9 mph - N/A   Scattered Clouds
9:00 PM 39.2 °F 35.0 °F 24.8 °F 56% 29.92 in 6.2 mi NNW 5.8 mph - N/A   Scattered Clouds
9:30 PM 39.2 °F 33.6 °F 24.8 °F 56% 29.92 in 6.2 mi NNW 8.1 mph - N/A   Scattered Clouds
10:00 PM 37.4 °F 32.1 °F 24.8 °F 60% 29.92 in 6.2 mi NNW 6.9 mph - N/A   Scattered Clouds
10:30 PM 37.4 °F 32.1 °F 24.8 °F 60% 29.92 in 6.2 mi NNW 6.9 mph - N/A   Mostly Cloudy
11:00 PM 37.4 °F 31.4 °F 24.8 °F 60% 29.92 in 6.2 mi NNW 8.1 mph - N/A   Mostly Cloudy